Location: Bun Machan
(52.1403°N, 7.3744°W)
Time: 02:39:40
(UTC+00:00)

X-37B - Pass Details

Date: 27 June 2021
Orbit: 383 x 392 km, 45.0° (Epoch: 01 July)

Event Time Altitude Azimuth Distance (km) Brightness Sun altitude
Rises 22:59:24 0° 256° (WSW) 2,257 4.6 -11.9°
Reaches altitude 10° 23:01:47 10° 239° (WSW) 1,402 3.3 -12.0°
Maximum altitude 23:04:12 20° 189° (S) 940 2.0 -12.1°
Enters shadow 23:04:26 20° 183° (S) 945 2.0 -12.1°
